Regional Weather Roundup
Issued by NWS

Home | Current Version | Previous Version | Graphics & Text | Print | Product List | Glossary On
Versions: 1 2 3 4 5 6 7 8 9 10 11 12 13 14 15 16 17 18 19 20 21 22 23 24 25 26 27 28 29 30 31 32 33 34 35 36 37 38 39 40 41 42 43 44 45 46 47 48 49 50
000
ASUS43 KOAX 011010
RWRNE

WEATHER ROUNDUP FOR NEBRASKA
NATIONAL WEATHER SERVICE OMAHA NE
500 AM CDT FRI AUG 01 2014

NOTES: SATELLITE DATA IS BEING USED TO AUGMENT CLOUD COVER ABOVE
       12000 FEET.
       "FAIR" INDICATES FEW OR NO CLOUDS BELOW 12,000 FEET WITH NO
       SIGNIFICANT WEATHER AND/OR OBSTRUCTIONS TO VISIBILITY.

  * THESE STATIONS DO NOT REPORT WEATHER SUCH AS RAIN...SNOW OR FOG.

NEZ001>004-019>022-054>056-011100-
NEBRASKA PANHANDLE

CITY           SKY/WX    TMP DP  RH WIND       PRES   REMARKS
SCOTTSBLUFF    CLEAR     56  50  80 NE3       30.18F
ALLIANCE       CLEAR     49  44  83 W5        30.17F
CHADRON        CLEAR     58  46  64 SW6       30.13S
KIMBALL        CLEAR     55  48  78 W3        30.22S
SIDNEY         CLEAR     51  45  79 SW7       30.21S
$$

NEZ057>060-069>072-079>082-011100-
SOUTHWEST NEBRASKA

CITY           SKY/WX    TMP DP  RH WIND       PRES   REMARKS
NORTH PLATTE   CLEAR     52  50  93 NW3       30.13R
IMPERIAL       CLEAR     61  53  75 NW3       30.15S
LEXINGTON      CLEAR     56  55  94 W5        30.10S
MCCOOK         CLEAR     57  55  93 W6        30.12S
OGALLALA       CLEAR     53  50  89 CALM      30.15S
$$

NEZ005>010-023>029-035>040-094-011100-
NORTH CENTRAL NEBRASKA

CITY           SKY/WX    TMP DP  RH WIND       PRES   REMARKS
VALENTINE      CLEAR     59  57  93 SE3       30.09F
AINSWORTH      CLEAR     58  58 100 CALM      30.10S FOG
BROKEN BOW     CLEAR     55  54  96 N6        30.09S
O`NEILL        FOG       56  56  99 CALM      30.09S VSB 1/2
ORD            CLEAR     57  55  93 NW5       30.07S
THEDFORD       CLEAR     55  53  92 CALM      30.13S
$$

NEZ041-046>049-061>064-073>077-083>087-011100-
SOUTH CENTRAL NEBRASKA

CITY           SKY/WX    TMP DP  RH WIND       PRES   REMARKS
GRAND ISLAND   CLEAR     58  56  93 N6        30.06S
AURORA         CLEAR     59  59 100 N5        30.05S
HASTINGS       CLEAR     59  54  83 N3        30.06R
HEBRON         CLEAR     60  55  84 W6        30.03S
HOLDREGE       CLEAR     58  57  95 W3        30.08S FOG
KEARNEY *      CLEAR     61  57  88 NW6       30.07S
YORK           CLEAR     55  55 100 N6        30.04S
$$

NEZ011>018-030>034-042>045-011100-
NORTHEAST NEBRASKA

CITY           SKY/WX    TMP DP  RH WIND       PRES   REMARKS
NORFOLK        CLEAR     56  54  93 CALM      30.06S FOG
ALBION         CLEAR     56  55  95 CALM      30.08R FOG
BLAIR          MOCLDY    63  60  89 E6        30.05S
COLUMBUS *     CLEAR     59  54  82 NE5       30.05F
FREMONT        CLEAR     65  62  89 E5        30.05S
TEKAMAH        CLEAR     60  57  89 NW3       30.05S
WAYNE          FOG       55  54  98 CALM      30.07S VSB 1/2
$$

NEZ050>053-065>068-078-088>093-011100-
SOUTHEAST NEBRASKA

CITY           SKY/WX    TMP DP  RH WIND       PRES   REMARKS
LINCOLN        CLEAR     67  58  72 SE12      30.03S
OMAHA EPPLEY   CLOUDY    67  60  78 SE7       30.05S
BEATRICE       CLEAR     65  59  80 SE8       30.02F
FALLS CITY     CLOUDY    66  62  87 SW3       30.06R
NEBRASKA CITY  MOCLDY    65  60  84 SE7       30.05F
PLATTSMOUTH    CLOUDY    65  62  91 SE6       30.05S
$$

NEZ044-045-051>053-067-011100-
OMAHA AREA

CITY           SKY/WX    TMP DP  RH WIND       PRES   REMARKS
OMAHA EPPLEY   CLOUDY    67  60  78 SE7       30.05S
BLAIR          MOCLDY    63  60  89 E6        30.05S
FREMONT        CLEAR     65  62  89 E5        30.05S
MILLARD        PTCLDY    67  61  81 E6        30.04S
OFFUTT AFB     CLOUDY    65  65  99 E9        30.04S
PLATTSMOUTH    CLOUDY    65  62  91 SE6       30.05S
WAHOO          FAIR      62  59  90 NE3       30.04S
$$



USA.gov is the U.S. government's official web portal to all federal, state and local government web resources and services.